CAPE
1031 1387 1829 1744 1625 1388 1279 878 453 124 74 286 524 793 734 493 100 4 0 0 0 0 0 0 111 330 365 372 432 581 403 290 278 128 135 1 4 2 2 0 0 0 0
505 774 1030 1231 1177 1103 941 896 551 93 36 244 375 386 200 24 0 0 0 0 0 0 0 0 0 0 4 67 490 470 381 280 174 160 37 1 2 3 2 0 0 0 0
52 599 643 760 894 704 661 794 691 380 55 8 11 9 2 0 0 0 0 0 0 0 0 0 0 0 0 0 47 300 461 281 231 166 138 1 2 2 1 1 0 0 0
0 0 28 116 706 958 710 408 299 250 165 97 51 28 8 0 0 0 0 0 0 0 0 0 0 0 0 0 36 183 342 342 185 192 228 15 2 4 2 4 3 0 0
0 0 0 0 0 547 945 990 630 359 252 155 104 56 17 0 0 0 0 0 0 0 0 0 0 0 0 0 0 0 0 2 172 158 241 28 1 4 3 3 4 0 1
0 0 0 0 0 0 0 443 843 679 423 273 116 63 42 20 3 0 0 0 0 0 0 0 0 0 0 0 0 0 0 0 116 251 225 94 2 3 6 2 4 4 5
0 0 0 0 0 0 0 0 0 92 477 415 249 110 53 21 2 0 2 1 0 0 0 0 0 0 0 0 0 0 0 0 0 134 303 172 11 0 2 3 2 0 1
0 0 0 0 0 0 0 0 0 0 0 18 50 72 52 101 34 80 25 19 3 1 0 0 0 0 0 0 0 0 0 0 0 0 211 204 124 0 0 0 2 1 0
0 0 0 0 0 0 0 0 0 0 1 4 9 11 2 15 6 8 53 34 0 0 0 0 0 0 0 0 0 0 0 0 0 0 24 173 75 0 0 0 3 3 3
0 0 0 0 0 0 0 0 0 0 0 0 0 0 2 2 0 0 0 0 0 0 0 0 0 0 0 0 0 0 0 0 0 0 0 45 0 0 0 0 2 2 1
0 0 0 0 0 0 0 0 0 0 0 0 0 0 0 0 0 0 0 0 0 0 0 0 0 0 0 0 0 0 0 0 0 0 0 0 0 0 1 0 0 0 0
0 0 0 0 0 0 0 0 0 0 0 0 0 0 0 0 0 0 0 0 0 17 5 0 0 0 0 0 0 0 0 0 0 0 0 2 6 0 2 2 0 0 0
0 0 0 0 0 0 0 0 0 0 0 0 0 0 0 0 0 0 0 0 0 0 13 7 0 0 0 0 0 0 0 0 0 4 9 0 0 0 2 2 2 0 0
0 0 0 0 0 0 0 0 0 0 0 0 0 0 0 0 0 0 0 0 0 0 0 9 7 0 0 0 0 0 0 0 0 0 14 0 0 1 1 2 1 1 1
0 0 0 0 0 0 0 0 0 0 0 0 0 0 0 0 0 0 0 0 0 0 0 0 0 0 0 0 0 0 0 0 0 0 12 11 1 3 1 1 1 3 2
1 1 1 0 0 1 0 1 0 0 0 0 0 0 1 1 0 0 0 0 0 0 0 3 0 0 0 0 0 0 0 0 0 0 26 12 0 0 1 1 2 1 1
3 2 2 2 3 4 4 3 2 0 0 0 0 0 0 0 0 0 0 0 0 0 0 2 3 2 0 0 0 0 0 0 0 0 2 8 0 0 1 2 3 2 2
5 5 5 4 5 4 5 5 4 4 3 1 0 0 0 0 0 0 0 0 0 0 4 1 0 1 1 0 0 0 1 0 0 0 1 3 1 0 2 3 2 2 0
3 4 5 2 2 3 5 6 7 6 5 3 1 0 0 0 0 0 0 0 1 1 0 1 0 0 0 7 4 13 17 0 0 2 4 2 1 1 2 2 1 1 0
2 2 2 2 2 4 4 5 4 4 4 5 3 1 0 0 0 0 0 1 2 1 0 0 0 0 0 2 5 14 8 3 1 5 3 1 1 1 2 1 2 0 0
2 1 0 2 2 2 2 2 3 4 4 4 3 1 0 1 2 2 1 2 2 1 0 0 0 2 0 2 4 1 3 6 1 3 1 0 2 1 1 1 2 1 0
1 2 2 2 3 2 3 3 3 3 3 3 2 2 0 0 2 3 2 2 1 1 0 0 0 4 7 2 1 0 0 8 2 1 1 1 1 1 0 0 1 0 0
3 3 3 4 4 4 4 3 3 3 3 3 2 3 3 1 1 2 2 2 3 1 1 0 0 2 2 0 0 0 0 1 2 0 0 0 1 0 0 0 0 1 0
2 3 3 2 2 5 6 5 4 3 3 3 3 3 3 3 2 2 2 2 3 2 1 1 0 1 7 0 0 2 1 1 0 0 0 0 0 0 1 1 1 0 0
2 3 4 4 2 2 5 6 6 4 4 2 3 4 3 3 2 1 1 2 2 3 1 1 1 0 0 0 0 1 0 0 0 0 0 0 0 0 1 1 1 0 0
3 4 5 4 4 2 2 2 3 2 3 3 3 3 3 3 2 1 2 2 2 2 1 2 1 1 0 3 8 6 0 0 0 0 0 0 0 0 0 0 0 0 0
CIN
-127 -107 -88 -70 -55 -69 -67 -79 -103 -140 -112 -72 -90 -92 -93 -103 -146 -88 -0 -0 -0 -0 -0 -0 -115 -56 -37 -27 -25 -22 -26 -30 -9 -61 -81 -0 -0 -0 -0 -0 -0 -0 -0
-172 -114 -98 -87 -81 -62 -72 -96 -112 -141 -179 -124 -124 -116 -127 -155 -6 -0 -0 -0 -0 -0 -0 -0 -0 -0 -7 -150 -28 -17 -16 -37 -24 -14 -148 -0 -0 -0 -0 -0 -0 -0 -0
-209 -90 -108 -117 -93 -97 -89 -91 -107 -129 -163 -189 -178 -172 -151 -0 -0 -0 -0 -0 -0 -0 -0 -0 -0 -0 -0 -0 -119 -37 -22 -25 -37 -27 -44 -0 -0 -0 -0 -0 -0 -0 -0
-0 -0 -106 -153 -80 -81 -100 -122 -117 -105 -118 -140 -157 -151 -166 -0 -0 -0 -0 -0 -0 -0 -0 -0 -0 -0 -0 -0 -57 -66 -36 -26 -36 -29 -31 -105 -0 -0 -0 -0 -0 -0 -0
-0 -0 -0 -0 -8 -113 -95 -90 -136 -132 -102 -105 -131 -133 -144 -0 -0 -0 -0 -0 -0 -0 -0 -0 -0 -0 -0 -0 -0 -0 -0 -9 -33 -36 -21 -73 -0 -0 -0 -0 -0 -0 -0
-0 -0 -0 -0 -0 -0 -0 -157 -118 -114 -123 -115 -97 -84 -102 -94 -63 -0 -0 -0 -0 -0 -0 -0 -0 -0 -0 -0 -0 -0 -0 -0 -49 -19 -26 -63 -66 -0 -0 -0 -0 -0 -0
-0 -0 -0 -0 -0 -0 -0 -0 -0 -103 -85 -77 -82 -65 -64 -86 -28 -0 -41 -44 -0 -0 -0 -0 -0 -0 -0 -0 -0 -0 -0 -0 -0 -48 -16 -40 -74 -0 -0 -0 -0 -0 -0
-0 -0 -0 -0 -0 -26 -0 -0 -0 -27 -0 -62 -41 -85 -54 -72 -39 -45 -40 -39 -19 -9 -0 -0 -0 -0 -0 -0 -0 -0 -0 -0 -0 -0 -38 -29 -72 -0 -0 -0 -0 -0 -0
-0 -0 -0 -0 -0 -0 -0 -0 -0 -0 -25 -161 -115 -48 -8 -40 -8 -80 -48 -39 -0 -0 -0 -0 -0 -0 -0 -0 -0 -0 -0 -0 -0 -0 -139 -50 -74 -0 -0 -0 -0 -0 -0
-0 -0 -0 -0 -0 -0 -0 -0 -0 -0 -0 -0 -0 -0 -133 -123 -0 -0 -0 -0 -0 -0 -0 -0 -0 -0 -0 -0 -0 -0 -0 -0 -0 -0 -0 -95 -0 -0 -0 -0 -0 -0 -0
-0 -0 -0 -0 -0 -0 -0 -0 -0 -0 -0 -0 -0 -0 -0 -0 -0 -0 -0 -0 -0 -3 -0 -0 -0 -0 -0 -0 -0 -0 -0 -0 -0 -0 -0 -0 -0 -0 -0 -0 -0 -0 -0
-0 -0 -0 -0 -0 -0 -0 -0 -0 -0 -0 -0 -0 -0 -0 -0 -0 -0 -0 -0 -0 -29 -18 -0 -0 -0 -0 -0 -0 -0 -0 -0 -0 -0 -0 -19 -134 -0 -0 -0 -0 -0 -0
-0 -0 -0 -0 -0 -0 -0 -0 -0 -0 -0 -0 -0 -0 -0 -0 -0 -0 -0 -0 -0 -0 -30 -24 -0 -0 -0 -0 -0 -0 -0 -0 -0 -41 -25 -0 -1 -0 -0 -0 -0 -0 -0
-0 -0 -0 -0 -0 -0 -0 -0 -0 -0 -0 -0 -0 -0 -0 -0 -0 -0 -0 -0 -0 -0 -0 -17 -21 -1 -0 -0 -0 -0 -0 -0 -0 -0 -6 -2 -0 -0 -0 -0 -0 -0 -0
-0 -0 -0 -0 -0 -0 -0 -0 -0 -0 -0 -0 -0 -0 -0 -0 -0 -0 -0 -0 -0 -0 -0 -0 -0 -0 -0 -0 -0 -0 -0 -0 -0 -0 -10 -8 -1 -0 -1 -0 -0 -0 -0
-0 -0 -0 -0 -0 -0 -0 -0 -0 -0 -0 -0 -0 -0 -0 -2 -0 -0 -0 -0 -0 -0 -0 -12 -0 -0 -0 -0 -0 -0 -0 -0 -0 -0 -3 -29 -5 -0 -0 -0 -0 -0 -0
-0 -0 -0 -0 -0 -0 -0 -0 -0 -0 -0 -0 -0 -0 -0 -0 -0 -0 -0 -0 -0 -0 -0 -15 -9 -4 -0 -0 -0 -0 -0 -0 -0 -0 -5 -18 -0 -3 -0 -0 -0 -0 -0
-0 -0 -0 -0 -0 -0 -0 -0 -0 -0 -0 -0 -0 -0 -0 -0 -0 -0 -0 -0 -0 -0 -0 -1 -0 -6 -1 -0 -0 -16 -98 -0 -0 -0 -0 -8 -0 -0 -0 -0 -0 -0 -0
-0 -0 -0 -0 -0 -0 -0 -0 -0 -0 -0 -0 -0 -0 -0 -0 -0 -0 -0 -0 -0 -0 -0 -0 -0 -0 -0 -4 -42 -54 -70 -15 -9 -0 -0 -0 -0 -0 -0 -0 -0 -0 -0
-0 -0 -0 -0 -0 -0 -0 -0 -0 -0 -0 -0 -0 -0 -0 -0 -0 -0 -0 -0 -0 -0 -0 -0 -0 -0 -0 -8 -30 -52 -56 -22 -11 -0 -0 -0 -0 -0 -0 -0 -0 -0 -0
-0 -0 -0 -0 -0 -0 -0 -0 -0 -0 -0 -0 -0 -0 -0 -0 -0 -0 -0 -0 -0 -0 -0 -0 -0 -1 -0 -1 -30 -16 -26 -23 -0 -0 -0 -0 -0 -0 -0 -0 -0 -0 -0
-0 -0 -0 -0 -0 -0 -0 -0 -0 -0 -0 -0 -0 -0 -0 -0 -0 -0 -0 -0 -0 -0 -0 -0 -0 -0 -1 -1 -33 -63 -2 -14 -20 -0 -0 -0 -0 -0 -0 -0 -0 -0 -0
-0 -0 -0 -0 -0 -0 -0 -0 -0 -0 -0 -0 -0 -0 -0 -0 -0 -0 -0 -0 -0 -0 -0 -0 -0 -1 -1 -0 -16 -0 -0 -11 -33 -0 -0 -0 -0 -0 -0 -0 -0 -0 -0
-0 -0 -0 -0 -0 -0 -0 -0 -0 -0 -0 -0 -0 -0 -0 -0 -0 -0 -0 -0 -0 -0 -0 -0 -0 -1 -2 -0 -35 -60 -50 -59 -0 -0 -0 -0 -0 -0 -0 -0 -0 -0 -0
-0 -0 -0 -0 -0 -0 -0 -0 -0 -0 -0 -0 -0 -0 -0 -0 -0 -0 -0 -0 -0 -0 -0 -0 -0 -0 -0 -0 -0 -0 -0 -0 -0 -0 -0 -0 -0 -0 -0 -0 -0 -0 -0
-0 -0 -0 -0 -0 -0 -0 -0 -0 -0 -0 -0 -0 -0 -0 -0 -0 -0 -0 -0 -0 -0 -0 -0 -0 -0 -0 -1 -0 -1 -0 -0 -0 -0 -0 -0 -0 -0 -0 -0 -0 -0 -0
Wind_Speed
17 19 20 20 21 22 21 19 17 17 16 14 14 12 11 11 13 14 15 17 18 21 23 24 25 25 26 27 25 23 23 22 26 24 19 16 14 7 5 7 4 5 8
26 21 20 20 19 20 20 21 20 19 16 14 14 14 14 15 15 17 18 19 19 19 23 25 26 26 27 27 25 26 25 23 23 25 21 18 18 10 8 5 3 4 6
24 23 23 18 17 18 17 16 16 16 17 17 17 17 17 18 19 20 21 21 20 20 22 24 26 26 27 27 27 28 26 24 22 22 21 19 18 10 10 10 4 4 4
23 21 23 22 25 25 21 18 16 16 18 19 19 20 21 21 21 22 23 23 22 21 21 22 24 25 26 26 27 29 29 28 24 23 21 19 18 13 12 10 10 5 4
25 20 22 23 25 24 23 25 25 24 23 23 24 24 24 23 24 25 25 24 24 24 22 21 24 25 24 26 28 31 32 31 26 22 21 20 17 15 13 15 15 6 10
37 30 28 24 28 31 26 24 25 27 28 29 28 26 27 26 26 25 26 26 26 26 25 23 26 27 29 31 31 32 31 32 29 22 18 18 18 15 12 12 12 10 14
36 38 37 34 31 35 32 28 26 31 33 30 29 27 28 30 27 26 26 27 27 27 27 27 28 26 29 34 35 34 34 34 29 24 20 15 17 13 12 10 13 13 17
41 41 39 36 36 44 35 36 32 33 33 27 28 31 30 27 28 25 30 27 28 29 29 29 29 29 31 35 37 36 36 35 33 29 20 14 9 7 6 9 12 17 17
39 39 38 35 37 36 36 36 35 34 34 32 32 33 33 30 27 27 28 32 36 37 33 30 30 32 33 35 36 37 38 37 33 32 31 27 12 7 6 8 11 15 19
41 41 39 36 37 37 36 33 31 34 36 37 37 37 37 36 37 35 36 39 42 38 36 32 31 35 36 36 34 36 38 37 33 31 29 27 19 10 9 8 8 12 19
31 30 33 32 33 35 34 36 36 39 40 41 41 40 40 38 39 38 38 38 37 38 37 34 32 34 36 36 32 34 36 34 32 31 29 25 18 11 10 9 9 11 15
38 40 38 38 38 39 39 39 40 42 43 43 44 46 44 44 43 42 41 40 38 40 38 35 33 33 34 33 32 34 35 33 32 31 26 23 18 15 12 12 11 12 12
41 45 46 45 44 44 44 47 46 43 43 46 47 48 47 45 45 44 45 43 41 41 40 36 34 36 33 32 32 32 32 33 35 31 27 23 20 16 13 12 12 14 13
48 50 49 50 49 46 45 44 43 42 43 44 44 49 49 47 45 42 43 43 44 43 41 38 37 36 35 34 36 35 35 35 35 34 30 25 22 18 14 12 14 15 16
46 45 46 46 46 46 45 45 45 43 41 44 46 47 49 48 45 43 43 43 43 42 40 38 39 40 41 38 37 37 36 36 35 34 29 26 24 21 18 14 14 17 19
41 41 40 42 42 44 47 49 45 48 48 48 47 46 45 46 43 42 43 41 39 39 41 41 41 42 43 41 38 37 35 34 32 31 32 28 25 23 20 17 15 19 20
29 28 22 22 28 34 38 43 49 45 45 48 50 48 48 46 47 49 48 46 44 42 43 42 41 41 41 36 34 32 32 31 29 31 35 31 28 25 21 18 16 21 21
19 19 18 20 21 19 20 20 23 33 40 42 42 44 44 45 42 44 45 48 51 44 44 41 39 38 35 33 31 30 31 30 30 32 34 35 30 26 23 19 19 19 21
18 21 22 16 15 17 19 17 28 27 23 41 42 39 39 42 38 38 38 40 41 42 42 43 42 40 36 32 32 31 33 33 33 33 34 36 31 26 24 20 20 20 19
12 15 16 19 22 20 27 28 28 31 34 35 42 38 33 31 31 30 30 29 27 29 32 42 44 45 43 38 34 33 35 34 32 32 33 35 31 27 25 21 21 21 21
14 14 20 26 18 20 28 26 26 26 29 32 36 41 39 25 27 19 17 19 20 22 27 35 43 48 48 43 38 38 38 36 33 31 32 33 30 27 25 22 22 20 20
17 17 17 17 14 20 21 20 19 22 25 25 26 28 20 17 16 12 13 12 13 14 21 30 38 41 45 45 42 40 40 38 33 31 31 31 30 28 24 22 22 22 20
21 18 18 15 18 19 21 20 21 20 22 19 21 25 18 15 19 20 19 16 15 16 12 18 33 40 42 44 43 41 41 38 34 30 30 31 30 28 24 21 21 21 24
18 22 20 15 20 18 16 14 14 16 14 18 22 23 23 24 23 24 19 11 19 19 14 12 22 35 40 39 40 40 40 34 33 29 28 29 29 26 23 24 22 21 24
10 12 13 15 16 14 12 11 13 16 17 19 23 25 26 26 20 14 13 20 24 22 19 15 30 38 39 40 39 41 41 36 31 28 28 28 27 24 24 25 23 21 20
8 10 12 16 17 17 1 1 14 18 20 21 20 23 22 18 12 6 12 8 19 25 21 26 38 38 42 44 45 42 38 33 30 26 27 28 25 23 25 26 26 24 21
Wind_Direction
269 268 267 264 262 265 260 260 259 261 256 251 248 250 261 277 291 302 313 321 324 323 324 323 322 322 319 320 321 319 317 320 311 318 328 332 325 327 323 341 19 60 69
281 279 268 260 259 262 265 262 261 263 262 258 258 261 270 280 289 296 304 312 319 323 321 321 318 319 316 317 319 316 317 319 316 311 317 321 318 315 305 328 14 16 39
288 289 284 282 266 259 258 257 257 257 257 260 262 267 274 282 288 293 298 303 309 315 318 320 317 316 315 316 313 313 316 319 317 315 313 316 316 321 307 304 325 349 46
297 298 286 288 276 269 267 264 257 256 258 260 263 268 273 279 284 289 292 295 299 306 312 315 316 317 316 319 317 311 309 310 315 312 308 310 307 311 301 291 298 309 331
295 293 294 299 294 278 271 267 268 268 268 268 268 269 272 277 282 285 286 288 291 297 303 307 309 310 314 315 317 311 304 303 309 312 309 303 304 300 293 289 287 295 302
278 285 284 298 291 281 285 283 276 273 275 276 276 273 274 278 281 284 284 284 286 290 295 301 301 302 303 305 310 309 306 300 300 305 310 300 297 299 294 285 286 290 293
277 282 281 286 288 291 285 288 288 282 279 278 276 277 282 279 282 282 283 284 284 286 291 296 297 297 298 300 303 304 299 294 297 302 299 296 292 291 286 278 277 274 289
276 273 277 281 280 276 289 287 283 281 282 286 280 276 276 280 278 279 281 283 283 285 288 291 292 292 294 296 297 298 294 290 290 290 298 295 278 276 245 267 274 276 289
283 280 280 279 278 283 280 278 282 283 279 279 280 279 281 281 278 277 276 280 280 282 285 287 287 287 290 293 294 292 290 284 287 286 283 288 285 251 247 280 275 270 279
282 282 286 281 279 278 280 282 285 282 281 282 281 280 281 280 282 281 278 278 278 281 282 283 283 283 285 288 288 288 285 281 286 289 286 284 286 256 216 230 251 262 274
291 289 285 288 286 284 284 281 283 282 281 282 282 282 282 282 281 281 281 278 278 279 279 280 281 282 281 283 283 283 280 283 286 286 286 284 284 267 234 241 240 253 266
286 283 285 286 286 285 283 284 283 282 281 282 282 281 280 279 278 278 278 277 278 277 277 278 278 278 280 278 279 279 278 281 286 287 283 281 278 276 253 243 248 258 261
289 283 282 283 283 283 282 279 279 280 280 278 278 279 278 276 277 277 276 275 276 275 276 276 275 275 273 274 274 276 277 278 282 281 278 275 275 278 261 254 252 261 262
286 284 285 283 283 283 281 279 278 277 278 277 276 274 275 275 275 277 277 275 274 273 273 272 272 271 270 272 272 272 272 274 277 273 273 272 273 268 262 250 258 248 247
286 286 285 284 284 282 280 277 276 276 275 276 275 274 273 273 274 273 273 274 274 272 272 270 268 267 269 269 269 269 269 270 269 268 266 267 266 260 262 251 252 244 242
290 290 290 288 287 284 281 278 276 274 275 274 273 273 274 273 274 275 272 272 272 273 269 267 266 265 265 265 265 265 265 264 262 262 259 260 257 257 257 254 245 240 236
243 244 259 277 288 288 285 281 276 277 276 272 270 271 271 274 272 271 270 270 270 271 268 265 264 264 262 260 258 260 261 260 258 257 254 254 254 252 249 243 237 242 235
251 253 265 284 283 271 250 251 270 279 277 275 273 271 272 271 272 270 268 268 266 267 265 264 263 264 255 255 254 258 258 257 255 253 251 247 247 246 245 240 231 234 222
300 300 295 268 262 265 275 258 230 228 234 274 274 274 272 269 271 270 269 269 268 264 261 258 257 256 257 254 252 253 252 252 251 250 247 241 240 241 240 237 233 228 214
279 258 254 245 238 236 228 225 221 223 225 224 242 273 275 273 271 271 270 269 269 267 258 254 250 249 249 249 250 247 246 247 250 247 241 237 237 237 236 233 233 221 215
248 246 235 230 220 217 222 214 212 211 216 223 230 244 254 272 271 271 266 268 264 265 261 256 249 244 242 243 243 240 240 245 245 242 237 234 234 234 234 232 230 226 211
243 234 222 212 204 205 205 202 202 207 214 216 219 216 207 210 213 238 253 240 226 232 257 256 249 243 237 235 236 236 238 240 240 236 234 232 232 232 231 228 229 221 212
247 227 217 204 203 201 205 205 206 204 210 211 208 208 198 200 202 206 207 208 204 202 228 250 248 239 233 231 232 232 233 235 237 235 231 230 230 229 226 222 222 217 217
262 260 232 204 208 200 198 195 193 198 193 198 201 204 204 202 198 199 198 208 193 187 192 202 244 233 227 225 228 229 230 234 232 230 227 226 226 225 222 226 227 215 218
277 271 258 258 234 164 170 168 175 186 191 194 203 209 209 205 193 183 183 182 184 175 173 178 237 226 225 224 224 224 224 226 227 224 224 223 223 222 222 224 222 215 216
294 295 292 313 325 326 190 104 183 199 209 211 209 212 207 202 202 209 193 206 176 176 169 170 217 219 214 215 216 217 219 220 222 216 220 221 222 219 221 223 219 218 219